• In Germany
  • List of Countries
  • For 7 days
  • Water Temperature
  • Satellite Maps
  • Weather Map
  • Weather Widgets
  • user-avatar
    Login

    Hourly Weather Graz

    Today, 19 June, Tuesday

    Time Temperature Precipitation Wind Pressure Humidity
    00:00 +16°C° 0 mm 2 mps 727 mmHg 83%
    01:00 +16°C° 0 mm 2 mps 727 mmHg 84%
    02:00 +15°C° 0 mm 2 mps 727 mmHg 86%
    03:00 +15°C° 0 mm 2 mps 727 mmHg 87%
    04:00 +15°C° 0 mm 2 mps 728 mmHg 88%
    05:00 +16°C° 0 mm 2 mps 728 mmHg 82%
    06:00 +18°C° 0 mm 2 mps 728 mmHg 75%
    07:00 +21°C° 0 mm 2 mps 729 mmHg 65%
    08:00 +23°C° 0 mm 2 mps 729 mmHg 60%
    09:00 +25°C° 0 mm 2 mps 729 mmHg 54%
    10:00 +26°C° 0 mm 3 mps 729 mmHg 48%
    11:00 +26°C° 0 mm 3 mps 729 mmHg 48%
    12:00 +27°C° 0 mm 2 mps 729 mmHg 47%
    13:00 +27°C° 0 mm 2 mps 729 mmHg 47%
    14:00 +27°C° 0 mm 2 mps 728 mmHg 48%
    15:00 +27°C° 0 mm 2 mps 728 mmHg 50%
    16:00 +27°C° 0 mm 2 mps 728 mmHg 51%
    17:00 +26°C° 0 mm 2 mps 728 mmHg 58%
    18:00 +25°C° 0 mm 2 mps 728 mmHg 65%
    19:00 +23°C° 0 mm 1 mps 728 mmHg 73%
    20:00 +22°C° 0 mm 1 mps 728 mmHg 77%
    21:00 +20°C° 0 mm 1 mps 729 mmHg 82%
    22:00 +19°C° 0 mm 1 mps 729 mmHg 87%
    23:00 +18°C° 0 mm 1 mps 729 mmHg 88%

    Tomorrow, 20 June, Wednesday

    Time Temperature Precipitation Wind Pressure Humidity
    00:00 +18°C° 0 mm 1 mps 729 mmHg 89%
    01:00 +16°C° 0 mm 1 mps 729 mmHg 90%
    02:00 +16°C° 0 mm 1 mps 729 mmHg 90%
    03:00 +16°C° 0 mm 1 mps 729 mmHg 90%
    04:00 +16°C° 0 mm 1 mps 729 mmHg 90%
    05:00 +19°C° 0 mm 1 mps 729 mmHg 84%
    06:00 +21°C° 0 mm 1 mps 729 mmHg 77%
    07:00 +22°C° 0 mm 1 mps 729 mmHg 70%
    08:00 +24°C° 0 mm 1 mps 729 mmHg 64%
    09:00 +26°C° 0 mm 1 mps 729 mmHg 58%
    10:00 +27°C° 0 mm 2 mps 729 mmHg 52%
    11:00 +28°C° 0.1 mm 2 mps 729 mmHg 52%
    12:00 +28°C° 0.1 mm 2 mps 729 mmHg 53%
    13:00 +28°C° 0.1 mm 2 mps 728 mmHg 53%
    14:00 +28°C° 0.3 mm 2 mps 728 mmHg 57%
    15:00 +28°C° 0.3 mm 2 mps 728 mmHg 61%
    16:00 +28°C° 0.3 mm 2 mps 727 mmHg 65%
    17:00 +27°C° 0.3 mm 2 mps 727 mmHg 71%
    18:00 +25°C° 0.3 mm 1 mps 727 mmHg 77%
    19:00 +24°C° 0.3 mm 1 mps 727 mmHg 84%
    20:00 +23°C° 0.1 mm 1 mps 727 mmHg 87%
    21:00 +22°C° 0.1 mm 1 mps 727 mmHg 90%
    22:00 +20°C° 0.1 mm 1 mps 727 mmHg 94%
    23:00 +20°C° 0 mm 1 mps 727 mmHg 94%

    Day after tomorrow, 21 June, Thursday

    Time Temperature Precipitation Wind Pressure Humidity
    00:00 +20°C° 0 mm 1 mps 727 mmHg 94%
    01:00 +19°C° 0 mm 1 mps 726 mmHg 94%
    02:00 +19°C° 0 mm 1 mps 726 mmHg 95%
    03:00 +19°C° 0 mm 1 mps 726 mmHg 95%
    04:00 +19°C° 0 mm 1 mps 725 mmHg 95%
    05:00 +20°C° 0 mm 1 mps 725 mmHg 90%
    06:00 +22°C° 0 mm 1 mps 725 mmHg 85%
    07:00 +24°C° 0 mm 1 mps 725 mmHg 80%
    08:00 +26°C° 0 mm 1 mps 725 mmHg 70%
    09:00 +28°C° 0 mm 1 mps 725 mmHg 61%
    10:00 +30°C° 0 mm 1 mps 725 mmHg 51%
    11:00 +31°C° 0.1 mm 2 mps 724 mmHg 49%
    12:00 +31°C° 0.1 mm 2 mps 724 mmHg 47%
    13:00 +32°C° 0.1 mm 2 mps 723 mmHg 45%
    14:00 +31°C° 0.4 mm 2 mps 723 mmHg 48%
    15:00 +31°C° 0.4 mm 2 mps 722 mmHg 52%
    16:00 +30°C° 0.4 mm 2 mps 722 mmHg 56%
    17:00 +29°C° 0.9 mm 2 mps 722 mmHg 64%
    18:00 +27°C° 0.9 mm 1 mps 722 mmHg 72%
    19:00 +25°C° 0.9 mm 1 mps 721 mmHg 80%
    20:00 +24°C° 1.5 mm 1 mps 722 mmHg 83%
    21:00 +23°C° 1.5 mm 2 mps 722 mmHg 87%
    22:00 +20°C° 1.5 mm 2 mps 723 mmHg 90%
    23:00 +20°C° 0.8 mm 2 mps 723 mmHg 91%

    22 June, Friday

    Time Temperature Precipitation Wind Pressure Humidity
    00:00 +19°C° 0.8 mm 2 mps 723 mmHg 93%
    01:00 +19°C° 0.8 mm 2 mps 723 mmHg 94%
    02:00 +18°C° 0.7 mm 2 mps 724 mmHg 94%
    03:00 +17°C° 0.7 mm 2 mps 724 mmHg 95%
    04:00 +16°C° 0.7 mm 2 mps 724 mmHg 95%
    05:00 +16°C° 1.5 mm 2 mps 724 mmHg 94%
    06:00 +15°C° 1.5 mm 2 mps 724 mmHg 93%
    07:00 +15°C° 1.5 mm 2 mps 725 mmHg 91%
    08:00 +14°C° 2 mm 2 mps 725 mmHg 90%
    09:00 +14°C° 2 mm 2 mps 725 mmHg 89%
    10:00 +14°C° 2 mm 2 mps 726 mmHg 88%
    11:00 +14°C° 1.2 mm 2 mps 726 mmHg 86%
    12:00 +14°C° 1.2 mm 2 mps 726 mmHg 84%
    13:00 +14°C° 1.2 mm 2 mps 726 mmHg 83%
    14:00 +15°C° 0.2 mm 2 mps 726 mmHg 77%
    15:00 +16°C° 0.2 mm 2 mps 726 mmHg 71%
    16:00 +17°C° 0.2 mm 2 mps 727 mmHg 65%
    17:00 +16°C° 0 mm 2 mps 727 mmHg 68%
    18:00 +16°C° 0 mm 2 mps 727 mmHg 71%
    19:00 +15°C° 0 mm 2 mps 727 mmHg 74%
    20:00 +13°C° 0 mm 1 mps 727 mmHg 79%
    21:00 +12°C° 0 mm 1 mps 727 mmHg 84%
    22:00 +10°C° 0 mm 1 mps 728 mmHg 89%
    23:00 +10°C° 0 mm 1 mps 728 mmHg 89%

    23 June, Saturday

    Time Temperature Precipitation Wind Pressure Humidity
    00:00 +10°C° 0 mm 1 mps 728 mmHg 89%
    01:00 +9°C° 0 mm 1 mps 728 mmHg 89%
    02:00 +9°C° 0 mm 1 mps 728 mmHg 89%
    03:00 +9°C° 0 mm 1 mps 728 mmHg 89%
    04:00 +9°C° 0 mm 1 mps 728 mmHg 89%
    05:00 +11°C° 0 mm 1 mps 728 mmHg 81%
    06:00 +13°C° 0 mm 1 mps 728 mmHg 73%
    07:00 +15°C° 0 mm 1 mps 728 mmHg 65%
    08:00 +18°C° 0 mm 1 mps 728 mmHg 58%
    09:00 +20°C° 0 mm 1 mps 728 mmHg 51%
    10:00 +22°C° 0 mm 1 mps 728 mmHg 43%
    11:00 +22°C° 0 mm 1 mps 728 mmHg 43%
    12:00 +22°C° 0 mm 1 mps 727 mmHg 42%
    13:00 +23°C° 0 mm 1 mps 727 mmHg 41%
    14:00 +23°C° 0 mm 2 mps 727 mmHg 41%
    15:00 +23°C° 0 mm 2 mps 727 mmHg 42%
    16:00 +23°C° 0 mm 2 mps 726 mmHg 42%
    17:00 +20°C° 0 mm 2 mps 726 mmHg 51%
    18:00 +20°C° 0 mm 1 mps 727 mmHg 60%
    19:00 +18°C° 0 mm 1 mps 727 mmHg 69%
    20:00 +16°C° 0 mm 1 mps 727 mmHg 74%
    21:00 +15°C° 0 mm 1 mps 727 mmHg 79%
    22:00 +13°C° 0 mm 1 mps 728 mmHg 84%
    23:00 +13°C° 0 mm 1 mps 728 mmHg 85%

    24 June, Sunday

    Time Temperature Precipitation Wind Pressure Humidity
    00:00 +13°C° 0 mm 1 mps 728 mmHg 86%
    01:00 +11°C° 0 mm 0 mps 728 mmHg 87%
    02:00 +12°C° 0 mm 1 mps 728 mmHg 88%
    03:00 +11°C° 0 mm 1 mps 728 mmHg 89%
    04:00 +11°C° 0 mm 1 mps 728 mmHg 90%
    05:00 +11°C° 0 mm 0 mps 728 mmHg 84%
    06:00 +13°C° 0 mm 0 mps 728 mmHg 78%
    07:00 +15°C° 0 mm 0 mps 728 mmHg 72%
    08:00 +16°C° 0 mm 0 mps 728 mmHg 66%
    09:00 +20°C° 0 mm 1 mps 728 mmHg 59%
    10:00 +21°C° 0 mm 1 mps 728 mmHg 53%
    11:00 +21°C° 0 mm 1 mps 727 mmHg 53%
    12:00 +21°C° 0 mm 1 mps 727 mmHg 54%
    13:00 +21°C° 0 mm 1 mps 727 mmHg 54%
    14:00 +21°C° 0.1 mm 1 mps 727 mmHg 56%
    15:00 +21°C° 0.1 mm 1 mps 727 mmHg 57%
    16:00 +21°C° 0.1 mm 1 mps 727 mmHg 59%
    17:00 +20°C° 0.1 mm 1 mps 727 mmHg 65%
    18:00 +19°C° 0.1 mm 1 mps 727 mmHg 72%
    19:00 +18°C° 0.1 mm 1 mps 727 mmHg 79%
    20:00 +16°C° 0.1 mm 1 mps 727 mmHg 82%
    21:00 +15°C° 0.1 mm 1 mps 727 mmHg 85%
    22:00 +13°C° 0.1 mm 1 mps 727 mmHg 89%
    23:00 +13°C° 0 mm 1 mps 727 mmHg 90%
    Show more